Zurück zum Katalog

COSMOS 2251 DEB

AktivLEO
NORAD 35902·DEBRIS·🇷🇺 Russia

Gestartet Jun 16, 1993 von Plesetsk Cosmodrome

Loading…

Nächste Überflüge (nächste 24 Stunden)

TLE

VeraltetSource: Space-Track

Epoche: Aug 30, 2026, 09:12 UTC

1 35902U 93036AUR 26242.38348413  .00001461  00000-0  56643-3 0  9999
2 35902  73.9810 120.9905 0102216 177.7440 182.4192 14.28009393648494

Verfolge COSMOS 2251 DEB in Echtzeit mit AllMySat

Download on the App Store